EHI
11 9 11 12 12 12 10 9 8 6 4 3 3 1 0 0 1 2 3 2 1 0 0 0 0 0 0 0 0 0 0 0 0 0 0 0 0 0 0 0 0 0 0
12 10 11 13 13 12 11 11 10 7 4 3 3 2 1 0 0 1 2 2 1 0 0 0 0 0 0 0 0 0 0 0 0 0 0 0 0 0 0 0 0 0 0
9 7 10 13 14 14 12 11 9 7 5 3 3 2 1 0 0 0 1 2 2 1 0 0 0 0 0 1 1 0 0 0 0 0 0 0 0 0 0 0 0 0 0
3 4 7 12 14 14 13 9 7 7 6 4 4 3 1 0 0 0 1 1 1 1 0 0 0 0 0 1 1 0 0 0 0 0 0 0 0 0 0 0 0 0 0
0 1 6 12 14 13 10 8 7 7 6 5 4 4 3 1 0 1 1 1 1 0 0 0 0 0 0 0 0 0 0 0 0 0 0 0 0 0 0 0 0 0 0
0 0 4 10 12 10 8 6 7 6 5 3 3 3 3 2 1 1 2 2 1 1 1 1 0 0 0 0 0 0 0 0 0 0 0 0 0 0 0 0 0 0 0
0 0 2 6 8 7 6 5 5 5 3 2 1 2 3 2 2 2 3 3 1 2 2 1 0 0 0 0 0 0 0 0 0 0 0 0 0 0 0 0 0 0 0
1 1 1 3 5 5 4 3 4 3 2 1 0 1 1 2 3 3 4 3 2 2 2 1 0 0 0 0 0 0 0 0 0 0 0 0 0 0 0 0 0 0 0
2 2 1 1 3 3 2 1 2 2 2 1 0 0 1 1 2 3 3 2 1 2 2 1 0 0 0 0 0 0 0 0 0 0 0 0 0 0 0 0 0 0 0
3 2 1 1 1 2 1 0 0 1 2 1 1 1 1 1 1 1 1 1 0 1 1 0 0 0 0 0 0 0 0 0 0 0 0 0 1 0 0 1 1 0 0
3 3 3 2 1 1 1 0 0 0 1 1 1 1 0 0 0 0 0 0 0 0 0 0 0 0 0 0 0 0 0 0 0 0 0 0 0 0 1 2 2 1 0
2 3 3 3 1 0 0 0 0 0 0 1 1 0 0 0 0 0 0 0 0 0 0 0 0 0 0 0 0 0 0 0 0 0 0 0 0 1 2 3 2 1 0
1 1 2 3 2 0 0 0 0 0 0 0 0 0 0 0 0 0 0 0 0 0 0 0 0 0 0 0 0 0 0 0 0 0 0 0 0 2 4 3 2 2 1
0 0 1 1 1 0 0 0 0 1 1 1 1 1 0 1 1 1 0 0 0 0 0 0 0 0 0 0 0 0 0 0 0 0 0 0 0 2 4 4 3 2 1
0 0 0 0 0 0 0 0 0 0 1 2 2 2 1 1 2 1 0 0 0 0 0 0 0 0 0 0 0 0 0 0 0 0 0 0 0 1 3 3 3 2 1
0 0 0 0 0 0 0 0 0 0 0 2 3 2 1 1 1 1 0 0 0 0 0 0 0 0 0 0 0 0 0 0 0 0 0 0 0 1 2 3 3 3 2
0 0 0 0 0 0 0 0 0 0 0 2 2 2 1 0 0 0 0 0 0 0 0 0 0 0 0 0 0 0 0 0 0 0 0 0 0 0 1 3 4 4 3
0 0 0 0 0 0 0 0 0 0 0 1 2 2 1 0 0 0 0 0 0 0 0 0 0 0 0 0 0 0 0 0 0 0 0 0 0 0 1 2 3 2 2
0 0 0 0 0 0 0 0 0 0 0 0 1 1 1 0 0 0 0 0 0 0 0 0 0 0 0 0 0 0 0 0 0 0 0 0 0 0 0 1 1 1 0
0 0 0 0 0 0 0 0 0 0 0 0 0 0 0 0 0 0 0 0 0 0 0 0 0 0 0 0 0 0 0 0 0 0 0 0 0 0 0 0 0 0 0
0 0 0 0 0 0 0 0 0 0 0 0 0 0 0 0 0 0 0 0 0 0 0 0 0 0 0 0 0 0 0 0 0 0 0 0 0 0 0 0 0 0 0
0 0 0 0 0 0 0 0 0 0 0 0 0 0 0 0 0 0 0 0 0 0 0 0 0 0 0 0 0 0 0 0 0 0 0 0 0 0 0 0 0 0 0
0 0 0 0 0 0 0 0 0 0 0 0 0 0 0 0 1 1 1 0 0 0 0 0 0 0 0 0 0 0 0 0 0 0 0 0 0 0 0 0 0 0 0
0 0 0 0 0 0 0 0 0 0 0 0 0 0 0 0 1 1 1 0 0 0 0 0 0 0 0 0 0 0 0 0 0 0 0 0 0 0 0 0 0 0 0
0 0 0 0 0 0 0 0 0 0 0 0 0 0 0 0 0 0 0 0 0 0 0 0 0 0 0 0 0 0 0 0 0 0 0 0 0 0 0 0 0 0 0
0 0 0 0 0 0 0 0 0 0 0 0 0 0 0 0 0 0 0 0 0 0 0 0 0 0 0 0 0 0 0 0 0 0 0 0 0 0 0 0 0 0 0
Wind_Speed
7 10 12 11 10 9 9 8 8 7 7 7 7 7 7 7 7 7 7 7 8 8 8 9 9 9 10 10 11 11 11 11 12 13 12 12 12 12 12 11 11 9 14
9 11 12 11 10 9 9 8 8 7 6 6 7 7 6 6 6 6 6 6 7 8 8 8 8 9 9 9 9 9 9 9 9 9 10 9 10 11 12 11 11 9 13
9 10 10 10 9 9 8 8 7 7 6 6 6 6 6 6 5 6 6 6 7 7 7 7 8 8 8 8 8 8 7 7 5 5 6 5 6 10 11 11 11 13 13
9 9 9 9 9 9 8 8 7 6 6 6 6 6 5 5 5 5 6 6 6 7 7 7 7 7 8 7 7 6 5 4 4 4 3 4 5 9 10 11 11 12 12
9 9 9 9 8 8 8 7 7 6 6 5 5 5 5 5 5 5 6 6 6 6 7 7 7 7 7 7 6 5 4 4 3 3 3 5 5 9 10 10 11 11 12
8 9 9 9 8 7 7 7 6 6 5 5 5 5 5 5 5 5 6 6 6 6 6 7 7 7 6 6 5 4 3 4 3 2 3 4 4 8 10 9 10 11 12
7 8 8 9 8 7 6 6 6 5 6 5 5 4 4 5 5 5 6 6 6 6 6 6 6 6 5 5 4 3 3 3 2 2 4 4 5 9 9 9 9 10 11
6 7 8 8 8 7 6 5 5 5 5 5 4 4 4 4 4 5 5 5 6 5 5 5 5 5 5 4 3 3 3 3 2 3 4 4 6 8 8 8 9 10 10
5 6 6 6 6 6 6 5 4 4 4 4 4 4 4 4 4 4 5 5 5 5 5 5 5 5 5 4 2 2 2 3 2 2 4 3 5 7 8 9 9 9 10
4 4 4 4 4 4 4 5 4 4 4 4 4 3 3 4 4 4 4 4 4 4 4 4 4 5 4 3 2 1 2 2 1 2 2 3 6 7 8 8 9 9 9
3 3 3 3 3 3 3 5 4 4 4 4 4 4 3 2 3 3 4 5 4 4 4 4 4 4 3 2 1 0 1 1 1 2 2 4 6 7 7 8 8 8 8
3 2 2 2 2 1 2 3 2 2 3 3 3 3 2 2 2 3 5 5 5 4 4 4 3 3 2 1 1 1 1 0 1 2 3 5 6 6 7 7 7 7 7
3 2 2 2 2 1 1 1 1 1 1 1 2 2 2 2 2 2 2 3 3 3 2 2 2 2 2 1 1 1 1 0 1 2 3 5 5 6 6 6 6 6 7
3 2 2 1 1 1 1 1 1 1 1 1 1 2 2 1 2 2 1 2 2 1 1 1 1 2 2 2 2 1 1 1 1 2 3 5 5 5 5 5 5 6 6
3 2 2 2 2 1 1 1 1 1 1 1 1 1 2 2 2 2 1 1 1 1 1 1 1 0 1 1 1 1 1 1 2 2 2 4 5 5 5 5 5 6 6
2 2 2 2 2 2 1 1 1 1 1 1 1 1 1 1 2 2 2 2 1 1 1 1 1 1 0 1 1 1 1 1 1 2 2 3 4 5 5 5 5 6 6
2 2 2 2 1 1 2 1 1 1 1 1 1 1 1 1 1 1 2 2 1 1 1 1 1 1 1 1 2 2 2 1 1 1 2 2 2 3 4 4 5 6 6
2 1 1 1 1 1 1 1 1 1 1 1 1 1 1 1 1 2 2 1 1 1 1 1 1 1 1 2 2 2 2 2 2 2 2 2 2 2 2 3 4 5 6
2 1 1 0 1 1 1 1 1 1 1 1 1 1 1 1 1 1 2 1 1 1 1 1 1 2 2 2 2 2 2 2 2 2 2 2 2 2 2 3 4 3 4
1 1 1 1 0 1 1 1 1 1 1 1 1 1 2 2 2 2 2 1 2 2 1 1 1 2 2 2 2 2 2 2 2 1 2 2 2 2 2 2 2 2 3
2 2 1 1 0 1 1 1 1 1 1 1 1 1 2 2 2 2 2 2 2 2 2 2 1 2 2 2 2 1 2 2 2 1 2 2 2 2 3 2 2 1 1
1 1 1 1 0 1 1 1 1 2 1 2 1 1 1 2 2 2 2 2 2 2 2 1 2 2 1 1 2 1 1 1 2 2 2 1 1 2 2 2 2 2 1
2 0 0 1 1 1 1 1 1 1 1 1 1 1 1 2 2 2 2 2 2 2 2 2 2 2 2 1 1 2 2 1 0 1 1 1 1 1 1 1 1 1 2
3 2 1 1 1 1 1 1 2 2 2 2 2 1 2 2 2 2 2 2 2 2 2 2 2 2 3 2 0 0 1 2 2 0 1 1 1 1 0 0 1 1 1
4 3 1 1 0 1 1 1 2 2 1 1 2 2 2 2 2 2 2 2 2 2 2 2 2 2 2 2 2 1 1 1 1 2 1 1 1 1 1 1 1 1 1
4 4 2 2 1 1 0 1 1 2 2 2 2 2 2 1 1 2 2 2 2 2 2 2 2 2 2 2 2 2 2 2 1 1 1 1 1 1 1 0 1 0 1
Wind_Direction
116 126 135 132 131 126 121 116 111 106 104 103 102 100 96 94 92 90 90 90 89 89 91 88 87 86 83 80 78 77 78 78 79 82 79 78 80 82 82 82 83 80 84
120 127 132 131 131 127 123 117 111 109 107 108 106 105 104 100 97 97 97 96 94 93 94 92 89 88 87 85 82 80 82 82 84 88 87 77 75 80 82 80 83 87 88
118 126 131 127 128 126 123 119 114 112 112 113 112 108 108 107 103 104 105 100 99 98 96 95 93 89 87 86 85 84 83 77 75 90 96 92 85 85 86 84 88 92 90
115 120 123 122 128 128 126 124 120 115 112 112 114 111 109 105 103 107 109 103 99 99 95 96 94 91 89 88 85 85 78 65 58 82 92 95 94 96 95 92 94 94 92
112 112 115 120 124 126 127 127 122 116 111 109 111 115 113 108 105 104 105 100 98 97 97 93 92 92 89 87 86 82 67 41 38 61 70 83 88 103 101 97 97 95 94
110 110 117 120 123 123 123 125 123 121 119 117 117 118 117 113 110 110 109 102 104 102 101 99 96 94 90 88 87 76 48 19 39 43 67 81 89 109 107 103 101 99 96
109 113 124 123 123 124 124 122 125 126 123 119 116 120 121 116 113 114 111 108 111 110 107 106 106 104 99 90 85 62 25 10 60 57 69 75 91 111 110 108 105 103 100
110 117 126 127 124 123 124 118 118 128 126 123 117 118 119 121 117 113 114 114 112 118 120 118 115 110 107 98 86 50 22 10 32 78 79 79 97 112 116 114 112 108 104
103 114 127 135 131 126 123 122 116 119 124 126 118 115 114 120 118 116 116 117 119 118 124 124 124 119 115 108 91 54 12 347 350 55 91 88 100 115 120 119 116 113 111
100 109 126 136 139 138 133 133 133 134 141 143 136 128 127 131 135 132 121 122 128 125 126 126 130 130 123 122 110 55 341 323 338 57 81 99 106 116 122 125 120 117 114
116 115 124 129 129 142 155 149 148 152 159 162 160 164 163 157 144 137 130 128 130 134 139 137 137 138 135 140 151 239 314 281 105 82 80 102 116 122 124 124 122 121 119
135 124 108 115 120 141 158 146 168 169 167 179 167 170 170 145 138 133 129 136 136 140 151 155 155 163 159 160 190 196 255 255 100 97 97 111 123 126 124 124 126 128 128
148 132 113 112 125 129 127 156 158 157 157 186 169 155 160 139 130 128 132 141 143 143 147 164 172 191 184 169 183 196 199 132 102 101 111 121 130 135 134 132 130 132 135
146 146 141 135 153 156 150 166 163 154 151 173 174 164 151 130 127 123 128 141 140 144 147 152 178 190 186 176 178 177 169 130 111 106 121 131 140 147 145 144 141 140 142
154 159 160 159 175 167 162 189 165 153 151 153 154 164 142 137 144 142 140 138 136 140 141 155 165 143 129 124 150 157 134 109 109 99 117 137 143 144 146 147 147 146 145
162 158 155 170 180 168 181 185 168 155 154 137 143 128 128 139 147 148 141 126 121 123 138 158 159 166 111 87 87 89 85 86 97 108 124 136 139 140 140 149 151 151 148
162 150 160 175 171 178 191 190 148 144 138 136 146 123 104 113 145 136 128 126 127 123 127 120 105 95 94 71 53 46 42 59 70 91 105 121 135 133 136 151 163 156 150
121 132 170 178 161 188 181 161 140 132 119 130 140 134 122 103 106 120 117 122 123 114 102 112 111 89 86 84 64 41 32 44 56 77 92 105 116 123 133 135 147 153 152
107 110 109 103 166 180 167 155 149 148 137 141 137 144 153 144 127 118 126 128 118 116 115 118 113 114 104 90 76 54 37 42 50 67 90 106 111 114 117 118 116 127 145
106 102 89 93 146 144 139 146 137 143 150 142 148 157 153 148 146 130 134 134 124 120 109 113 132 118 112 110 82 59 44 40 47 59 79 77 88 100 104 105 110 117 124
85 88 96 103 101 111 127 154 153 175 159 149 144 135 142 137 143 141 146 143 132 137 143 141 127 122 113 113 87 58 37 42 51 46 70 84 82 85 92 105 108 111 117
76 83 125 142 148 139 162 171 169 163 166 169 165 142 126 135 145 148 149 152 142 136 142 146 135 127 129 124 118 116 82 16 17 24 44 72 89 77 80 91 111 117 118
22 29 162 143 145 124 134 148 146 122 117 118 153 149 114 115 129 135 148 143 141 146 163 173 163 143 151 173 107 133 145 181 322 344 18 45 64 78 72 84 104 118 121
0 2 96 125 132 132 136 155 163 165 166 175 168 150 131 118 119 125 137 136 142 146 158 180 168 157 154 172 158 45 127 139 146 152 346 18 23 52 58 59 103 99 104
16 20 41 62 83 130 143 173 184 173 167 149 141 140 139 133 124 130 137 136 141 151 164 170 167 157 155 165 159 144 93 72 115 149 203 297 349 344 351 40 87 111 106
20 24 28 37 20 44 102 162 186 165 149 139 131 138 140 129 125 136 138 142 147 154 166 173 176 166 166 163 156 149 156 157 172 155 171 198 257 283 306 18 66 142 121